Simultaneous Nadir Overpasses (SNOs) Predictions

Prediction of SNOs between GOES-15 and LANDSAT-8 Satellite Orbit:

Table of predicted SNOs for the next 14.0 days since TLE Epoch: 10/22/2022
Index Date Time (GOES-15) GOES-15 Lat,Lon LANDSAT-8 Lat,Lon Distance(km) Time Diff (sec)
1 10/22/2022 18:33:55 -0.28,-128.42 -1.02,-125.07 381.12 80
2 10/23/2022 06:55:19 0.28,-128.42 -0.11,-130.26 208.74 80
3 10/25/2022 06:40:29 0.28,-128.42 0.54,-127.31 127.46 80
4 10/25/2022 19:01:43 -0.28,-128.42 0.61,-132.46 460.01 80
5 10/27/2022 06:28:18 0.28,-128.42 1.14,-124.35 462.89 80
6 10/27/2022 18:49:33 -0.27,-128.41 -0.05,-129.51 124.58 80
7 10/29/2022 18:40:03 -0.27,-128.40 -0.66,-126.55 209.94 80
8 10/30/2022 07:01:26 0.26,-128.41 -0.46,-131.74 379.12 80
9 11/01/2022 06:49:15 0.26,-128.39 0.16,-128.78 45.34 80
10 11/03/2022 06:34:24 0.25,-128.36 0.80,-125.83 288.33 80
11 11/03/2022 18:55:39 -0.25,-128.34 0.34,-130.98 300.84 80
